Weather History for KAPY - October, 2012

Change the Weather History Date:

Friday, October 5, 2012

  Actual Average (KLRD) Record (KLRD)
Temperature  
Mean Temperature 82 °F 78 °F  
Max Temperature 95 °F 89 °F 100 °F (1912)
Min Temperature 68 °F 68 °F 50 °F (1932)
Degree Days  
Heating Degree Days 0 0  
Month to date heating degree days 0  
Since 1 July heating degree days 1  
Cooling Degree Days 16 14  
Month to date cooling degree days 70  
Year to date cooling degree days 3855  
Growing Degree Days 32 (Base 50)    
Moisture  
Dew Point 63 °F    
Average Humidity 62    
Maximum Humidity 95    
Minimum Humidity 26    
Precipitation  
Precipitation 0.00 in 0.08 in 3.91 in (1971)
Month to date precipitation 0.41  
Year to date precipitation 16.33  
Sea Level Pressure  
Sea Level Pressure 30.02 in    
Wind  
Wind Speed 8 mph (SE)    
Max Wind Speed 15 mph    
Max Gust Speed 22 mph    
Visibility 10 miles    
Events      
T = Trace of Precipitation, MM = Missing Value Source: NWS Daily Summary

Daily Weather History Graph

Daily Weather History Graph

Search for Another Location

Airport or City:

Trip Planner

Search our weather history database for the weather conditions in past years. The results will help you decide how hot, cold, wet, or windy it might be!

Date:

Astronomy

Oct. 05, 2012 Rise Set
Actual Time 7:31 AM CDT 7:18 PM CDT
Civil Twilight 7:08 AM CDT 7:41 PM CDT
Nautical Twilight 6:41 AM CDT 8:08 PM CDT
Astronomical Twilight 6:14 AM CDT 8:35 PM CDT
Moon 11:07 PM CDT (10/5) 12:15 PM CDT (10/5)
Length of Visible Light 12h 33m
Length of Day
11h 46m
Waning Gibbous, 74% of the Moon is Illuminated
Oct 5
Waning Gibbous
Oct 8
Last Quarter
Oct 15
New
Oct 21
First Quarter
Oct 29
Full

Hourly Weather History & Observations

Time (CDT) Temp. Heat Index Dew Point Humidity Pressure Visibility Wind Dir Wind Speed Gust Speed Precip Events Conditions
12:15 AM 78.1 °F - 66.6 °F 68% 30.05 in 10.0 mi SE 8.1 mph - N/A   Clear
12:35 AM 77.5 °F - 66.7 °F 69% 30.05 in 10.0 mi SE 9.2 mph - N/A   Clear
12:55 AM 77.0 °F - 66.7 °F 70% 30.04 in 10.0 mi SE 10.4 mph - N/A   Clear
1:55 AM 75.6 °F - 67.1 °F 75% 30.03 in 10.0 mi SE 8.1 mph - N/A   Clear
2:35 AM 74.3 °F - 67.1 °F 78% 30.03 in 10.0 mi SE 8.1 mph - N/A   Clear
2:55 AM 73.9 °F - 67.3 °F 80% 30.02 in 10.0 mi SE 8.1 mph - N/A   Clear
3:35 AM 73.4 °F - 67.1 °F 81% 30.02 in 10.0 mi SE 5.8 mph - N/A   Clear
3:55 AM 72.9 °F - 67.1 °F 82% 30.02 in 10.0 mi SSE 4.6 mph - N/A   Clear
4:35 AM 71.8 °F - 66.7 °F 84% 30.01 in 10.0 mi SE 5.8 mph - N/A   Clear
5:35 AM 70.2 °F - 66.2 °F 87% 30.02 in 10.0 mi SE 4.6 mph - N/A   Clear
5:55 AM 69.8 °F - 66.2 °F 88% 30.02 in 10.0 mi SE 4.6 mph - N/A   Clear
6:15 AM 69.3 °F - 66.4 °F 91% 30.03 in 10.0 mi SE 3.5 mph - N/A   Clear
6:35 AM 68.5 °F - 66.2 °F 92% 30.03 in 10.0 mi Calm Calm - N/A   Clear
6:55 AM 68.2 °F - 66.6 °F 95% 30.03 in 10.0 mi SE 3.5 mph - N/A   Clear
8:15 AM 69.1 °F - 66.4 °F 91% 30.05 in 10.0 mi SE 4.6 mph - N/A   Clear
8:35 AM 70.9 °F - 66.6 °F 86% 30.05 in 10.0 mi SE 5.8 mph - N/A   Clear
9:35 AM 76.5 °F - 66.2 °F 70% 30.07 in 10.0 mi SSE 10.4 mph 16.1 mph N/A   Clear
9:55 AM 77.9 °F - 65.3 °F 65% 30.08 in 10.0 mi SSE 13.8 mph 19.6 mph N/A   Clear
10:15 AM 79.9 °F - 64.6 °F 59% 30.07 in 10.0 mi South 12.7 mph - N/A   Clear
10:55 AM 83.1 °F 84.0 °F 63.0 °F 50% 30.07 in 10.0 mi South 10.4 mph 19.6 mph N/A   Clear
11:35 AM 85.5 °F 86.1 °F 62.2 °F 46% 30.07 in 10.0 mi SE 15.0 mph 18.4 mph N/A   Clear
11:55 AM 86.9 °F 86.7 °F 60.4 °F 41% 30.06 in 10.0 mi SE 12.7 mph 21.9 mph N/A   Clear
12:15 PM 87.8 °F 87.6 °F 60.6 °F 40% 30.05 in 10.0 mi SE 13.8 mph 18.4 mph N/A   Clear
12:35 PM 88.7 °F 88.3 °F 60.3 °F 38% 30.05 in 10.0 mi SSE 11.5 mph 18.4 mph N/A   Clear
12:55 PM 90.1 °F 89.6 °F 60.1 °F 36% 30.04 in 10.0 mi SSE 12.7 mph 16.1 mph N/A   Clear
1:35 PM 92.1 °F 91.4 °F 59.5 °F 33% 30.02 in 10.0 mi SSE 8.1 mph 18.4 mph N/A   Clear
3:15 PM 94.1 °F 92.5 °F 56.7 °F 28% 29.96 in 10.0 mi SSE 6.9 mph - N/A   Clear
5:15 PM 95.0 °F 93.0 °F 55.0 °F 26% 29.92 in 10.0 mi SSE 11.5 mph 16.1 mph N/A   Clear
5:55 PM 94.3 °F 92.1 °F 54.5 °F 26% 29.92 in 10.0 mi ESE 6.9 mph - N/A   Clear
6:35 PM 92.7 °F 90.1 °F 53.2 °F 26% 29.92 in 10.0 mi SE 9.2 mph - N/A   Clear
8:15 PM 85.8 °F 84.2 °F 54.7 °F 34% 29.94 in 10.0 mi ESE 5.8 mph - N/A   Clear
9:15 PM 82.8 °F 82.0 °F 55.8 °F 39% 29.95 in 10.0 mi ESE 4.6 mph - N/A   Clear